Location: *
(57.8420°S, 159.8600°W)
Time: 03:55:46
(UTC+00:00)

CZ-4B R/B - Pass Details

Date: 18 May 2021
Orbit: 809 x 881 km, 99.1° (Epoch: 20 June)

Event Time Altitude Azimuth Distance (km) Brightness Sun altitude
Exits shadow 06:31:21 52° 290° (WNW) 1,024 3.8 -31.8°
Drops below altitude 10° 06:35:36 10° 324° (NW) 2,415 5.8 -32.3°
Sets 06:37:57 0° 327° (NNW) 3,343 6.5 -32.6°
